Weather History for Edwards AFB, CA

Change the Weather History Date:

Monday, September 30, 2013

  Actual Average Record
Temperature  
Mean Temperature 72 °F -  
Max Temperature 86 °F 85 °F 96 °F (2003)
Min Temperature 58 °F 51 °F 41 °F (2007)
Cooling Degree Days 7    
Growing Degree Days 22 (Base 50)    
Moisture  
Dew Point 35 °F    
Average Humidity 26    
Maximum Humidity 48    
Minimum Humidity 14    
Precipitation  
Precipitation 0.00 in - - ()
Sea Level Pressure  
Sea Level Pressure 29.90 in    
Wind  
Wind Speed 15 mph (WSW)    
Max Wind Speed 29 mph    
Max Gust Speed 34 mph    
Visibility 10 miles    
Events      
Averages and records for this station are not official NWS values.
T = Trace of Precipitation, MM = Missing Value Source: NWS Daily Summary

Daily Weather History Graph

Daily Weather History Graph

Search for Another Location

Airport:

Trip Planner

Search our weather history database for the weather conditions in past years. The results will help you decide how hot, cold, wet, or windy it might be!

Date:

Astronomy

Sep. 30, 2013 Rise Set
Actual Time 6:45 AM PDT 6:36 PM PDT
Civil Twilight 6:20 AM PDT 7:01 PM PDT
Nautical Twilight 5:51 AM PDT 7:30 PM PDT
Astronomical Twilight 5:21 AM PDT 8:00 PM PDT
Moon 2:35 AM PDT (9/30) 4:02 PM PDT (9/30)
Length of Visible Light 12h 41m
Length of Day
11h 50m
Waning Crescent, 18% of the Moon is Illuminated
Sep 30
Waning Crescent
Oct 4
New
Oct 11
First Quarter
Oct 18
Full
Oct 26
Last Quarter

Hourly Weather History & Observations

Time (PDT) Temp. Dew Point Humidity Pressure Visibility Wind Dir Wind Speed Gust Speed Precip Events Conditions
12:58 AM 63.3 °F 26.2 °F 25% 29.95 in 10.0 mi SSW 12.7 mph - N/A   Clear
1:58 AM 62.4 °F 27.3 °F 26% 29.94 in 10.0 mi SSW 11.5 mph - N/A   Clear
2:58 AM 62.6 °F 29.5 °F 29% 29.93 in 10.0 mi SSW 10.4 mph - N/A   Clear
3:58 AM 61.7 °F 31.5 °F 32% 29.93 in 10.0 mi SW 9.2 mph - N/A   Clear
4:58 AM 62.1 °F 32.0 °F 32% 29.92 in 10.0 mi SSW 10.4 mph - N/A   Clear
5:58 AM 59.2 °F 31.8 °F 36% 29.94 in 30.0 mi SSW 10.4 mph - N/A   Clear
6:58 AM 58.5 °F 38.8 °F 48% 29.94 in 90.0 mi SW 12.7 mph - N/A   Clear
7:58 AM 63.0 °F 42.3 °F 47% 29.96 in 90.0 mi SSW 10.4 mph - N/A   Clear
8:58 AM 69.4 °F 42.4 °F 38% 29.96 in 90.0 mi SW 13.8 mph - N/A   Clear
9:52 AM 77.0 °F 35.6 °F 22% 30.00 in 90.0 mi West 15.0 mph - N/A   Clear
9:58 AM 76.8 °F 36.3 °F 23% 29.95 in 90.0 mi West 17.3 mph - N/A   Clear
10:20 AM 78.8 °F 35.6 °F 21% 30.00 in 90.0 mi West 17.3 mph 25.3 mph N/A   Clear
10:58 AM 80.2 °F 34.9 °F 19% 29.92 in 90.0 mi West 13.8 mph 23.0 mph N/A   Clear
11:58 AM 83.3 °F 33.1 °F 16% 29.91 in 90.0 mi West 15.0 mph - N/A   Clear
12:47 PM 84.2 °F 33.8 °F 16% 29.94 in 90.0 mi West 24.2 mph 31.1 mph N/A   Clear
12:58 PM 85.3 °F 34.5 °F 16% 29.87 in 80.0 mi West 25.3 mph 32.2 mph N/A   Clear
1:05 PM 86.0 °F 33.8 °F 15% 29.92 in 80.0 mi West 28.8 mph 34.5 mph N/A   Clear
1:58 PM 85.8 °F 34.3 °F 16% 29.85 in 80.0 mi West 25.3 mph 32.2 mph N/A   Clear
2:58 PM 85.5 °F 31.6 °F 14% 29.83 in 80.0 mi West 23.0 mph 31.1 mph N/A   Clear
3:58 PM 84.4 °F 32.9 °F 16% 29.82 in 80.0 mi WNW 25.3 mph 32.2 mph N/A   Clear
4:58 PM 82.2 °F 34.0 °F 18% 29.82 in 80.0 mi West 26.5 mph 31.1 mph N/A   Clear
5:58 PM 79.9 °F 34.5 °F 19% 29.82 in 80.0 mi West 20.7 mph 28.8 mph N/A   Clear
6:58 PM 74.8 °F 37.2 °F 26% 29.82 in 60.0 mi West 21.9 mph 28.8 mph N/A   Clear
7:58 PM 73.6 °F 34.0 °F 23% 29.84 in 40.0 mi WSW 13.8 mph 25.3 mph N/A   Clear
8:58 PM 69.8 °F 34.7 °F 27% 29.85 in 40.0 mi SW 12.7 mph - N/A   Clear
9:58 PM 67.6 °F 36.1 °F 31% 29.84 in 40.0 mi SW 12.7 mph - N/A   Clear
10:58 PM 64.4 °F 40.3 °F 41% 29.84 in 10.0 mi SW 12.7 mph - N/A   Clear
11:58 PM 63.9 °F 41.9 °F 45% 29.84 in 10.0 mi SW 15.0 mph - N/A   Clear